Showing default

KINEIS-5A, 62084

Orbit data source: Space-Track

KINEIS-5A, 62084 is a French payload satellite in SSO that was launched on Mon, 25 Nov 2024 UTC via an ELECTRON launch vehicle from the Rocket Lab Launch Complex (RLLC). Payload-class satellites include a variety of spacecraft equipped with specific instruments for various scientific and technological missions. These include communications satellites like Starlink; space stations such as the ISS; scientific satellites like the Hubble; Earth observation satellites from companies like Planet Labs, Umbra, and HawkEye 360; GPS; miniature CubeSats for education and research; and military/defense satellites.

Loading next visibility...
Identifier
62084, 2024-219D
Orbit
SSO
Country
Flag of FRFR
Related business
Manufacturer
KINEIS
Mission
Operational Commercial Communications
Bus & Motor
CUBESAT 16U, Unknown motor
Mass
28 kg wet, 28 kg dry
Launch date (UTC)
2024-11-25 (11 months ago)
Launch vehicle
ELECTRON
Launch site
Rocket Lab Launch Complex (RLLC)
Object type
Payload
Rocket body
Debris
Shape & HBR
Box + 2 Pan + 1 Ant, 1.0 m
Radar Cross Section
0.229 m², Medium (>0.1 m² and < 1m²)

Expand to show TLE details & history
Last TLE update: 23 hours ago

TLE from 23 hours ago
0 KINEIS-5A
1 62084U 24219D   25312.88205137  .00001398  00000-0  22874-3 0  9992
2 62084  97.9852 111.7288 0001015 302.3573  57.7536 14.72334580 51354
Epoch: 2025-11-08T21:10Z
TLE epoch observation values (Epoch: 2025-11-08T21:10:09.238Z)
Latitude
-0.00003°
Longitude
105.88502°
Altitude
656.253 km
Speed
7.53 km/s
True Right ascension
07h 26m 54s
True Declination
0° 00' 00"
Sunlit
Object was in daylight at epoch
Visualization orbit readout
Latitude
Unknown
Longitude
Unknown
Altitude
Unknown
Speed
Unknown
Apparent Right ascension
Unknown
Apparent Declination
Unknown
Sunlit
N/A
Visualization observer readout
Local Sidereal Time
16:37:26
Azimuth
Unknown
Elevation
Unknown
Doppler factor
Unknown
Orbital elements
Apogee altitude
651.393 km
Perigee altitude
649.967 km
Semi-major axis
7,028.817 km
Eccentricity
0.0001
Inclination
97.9852°
RAAN
111.7288°
Arg. of periapsis
302.3573°
True anomaly
57.76344°
Mean anomaly
57.7536°
Eccentric anomaly
57.75852°
Mean motion
3.68315 °/min
Orbital period
97.74 mins
BSTAR
0.00022874
Loading maneuver chart data...
Computing Atmospheric mass density...
Loading historical data...
Loading historical data...
Loading historical data...
Loading historical data...
Loading historical data...
Loading historical data...
Loading historical data...

Documentation

Showing up to 5 results
|